Regional Weather Roundup
Issued by NWS San Diego, CA

Home | Current Version | Previous Version | Text Only | Print | Product List | Glossary On
Versions: 1 2 3 4 5 6 7 8 9 10 11 12 13 14 15 16 17 18 19 20 21 22 23 24 25 26 27 28
000
ASUS46 KSGX 231211
RWRSGX

SAN DIEGO HOURLY WEATHER ROUNDUP
NATIONAL WEATHER SERVICE SAN DIEGO CA
500 AM PDT MON APR 23 2018

NOTE: "FAIR" INDICATES FEW OR NO CLOUDS BELOW 12,000 FEET WITH NO
SIGNIFICANT WEATHER AND/OR OBSTRUCTIONS TO VISIBILITY.

CAZ042-043-060-061-PZZ750-775-231300-

GREATER SAN DIEGO AREA

CITY           SKY/WX    TMP DP  RH WIND       PRES   REMARKS
SAN DIEGO AP   CLOUDY    57  55  93 SW7       30.00R FOG
NATIONAL CITY    N/A     58  56  93 CALM      30.00R
CHULA VISTA      N/A     57  56  96 SW3       29.90R
IMPERIAL BEACH CLOUDY    57  53  86 SW7       30.00R FOG
BROWN FIELD    FOG       55  55 100 W3        29.98R VSB 1/4
MIRAMAR MCAS   FOG       59  55  87 S5        29.98R VSB 1
MONTGOMERY FLD CLOUDY    56  55  97 S7        29.98R FOG
GILLESPIE FLD  CLOUDY    54  52  94 CALM      29.98R FOG

$$

NORTH SAN DIEGO COUNTY

CITY           SKY/WX    TMP DP  RH WIND       PRES   REMARKS
CAMP PENDLETON FOG       50  50 100 NE6       29.98R VSB 1
OCEANSIDE AP   CLOUDY    58  55  90 S5        29.97R
OCEANSIDE HBR    N/A     57  56  95 CALM      30.00R
VISTA            N/A     55  49  82 CALM      29.95R
CARLSBAD       FOG       56  56 100 S6        29.97R VSB 1/2
DEL MAR          N/A     56  55  96 CALM      29.99R
LA JOLLA SCRIP   N/A     56  55  96 SE3       29.98R
FALLBROOK        N/A     51  51 100 CALM      29.97R
ESCONDIDO        N/A     54  50  86 CALM      29.97R
SAN MARCOS       N/A     52  49  89 CALM      30.00R
POWAY            N/A     49  45  87 CALM      29.96R

$$

EAST SAN DIEGO COUNTY

CITY           SKY/WX    TMP DP  RH WIND       PRES   REMARKS
RAMONA         CLEAR     45  36  70 CALM      29.98R
SANTEE LAKES     N/A     51  48  90 CALM      29.97R
LA MESA          N/A     54  53  95 CALM      29.91R
JAMUL            N/A     49  47  92 CALM      29.96R
CAMPO            N/A     44  29  55 NE6       29.98S

$$

ORANGE COUNTY AND THE LOS ANGELES BASIN

CITY           SKY/WX    TMP DP  RH WIND       PRES   REMARKS
JOHN WAYNE AP  CLOUDY    57  55  93 S6        29.97R
LAGUNA BEACH     N/A     57  55  91 CALM      29.93R
LAKE FOREST FR   N/A     54  43  66 CALM      29.84R
HUNTINGTON BCH   N/A     58  56  94 S1        29.98R
LOS ALAMITOS   CLOUDY    57  56  96 CALM      29.97R
FULLERTON      CLOUDY    58  56  93 CALM      29.96S FOG
LONG BEACH     CLOUDY    59  56  89 E3        29.97R
L.A. AP        CLOUDY    57  56  96 CALM      29.98R FOG
L.A. DOWNTOWN  CLOUDY    58  56  93 CALM      29.96S FOG

$$

THE INLAND EMPIRE

CITY           SKY/WX    TMP DP  RH WIND       PRES   REMARKS
CORONA         CLEAR     46  43  89 CALM      29.98R
CHINO          CLEAR     55  47  74 CALM      29.98R
ONTARIO        CLEAR     57  45  64 CALM      29.97R
SAN BERNARDINO FAIR      57  36  44 CALM      29.97S
RIVERSIDE AP   CLEAR     56  43  61 CALM      29.97R
MORENO VALLEY    N/A     58  42  55 CALM      28.09S
MARCH ARB      CLEAR     46  33  60 CALM      29.97R
HORSETHIEF CYN   N/A     54  28  36 W3        29.94R
PERRIS           N/A     55  44  68 CALM      29.92R
HEMET EAST       N/A     61  21  21 CALM      29.87S
FRENCH VALLEY  FAIR      52  39  62 CALM      29.98R
TEMECULA         N/A     53  45  74 CALM      30.04R

$$

SAN BERNARDINO AND RIVERSIDE COUNTY MOUNTAINS

CITY           SKY/WX    TMP DP  RH WIND       PRES   REMARKS
BIG BEAR AP    CLEAR     32  21  64 CALM      30.18R
ANGELUS OAKS     N/A     49  24  36 CALM      29.87S

$$

SOUTHERN DESERT INCLUDING THE COACHELLA VALLEY

CITY           SKY/WX    TMP DP  RH WIND       PRES   REMARKS
PALM SPRINGS   CLEAR     71  38  29 CALM      29.86S
THOUSAND PALMS   N/A     80  28  15 NW10      29.81R
PALM DESERT      N/A     67  43  42 CALM        N/A
THERMAL        CLEAR     65  36  34 NW6       29.81R
BLYTHE         CLEAR     66  30  26 N5        29.85R
IMPERIAL AP    CLEAR     67  33  28 SW9       29.83R
EL CENTRO NAS  CLEAR     65  29  25 SW8       29.86R
YUMA AZ        CLEAR     65  36  34 S10       29.87R

$$

UPPER DESERT

CITY           SKY/WX    TMP DP  RH WIND       PRES   REMARKS
VICTORVILLE AP CLEAR     54  30  40 S8        30.00R
HESPERIA         N/A     56  34  43 CALM      29.93R
APPLE VALLEY     N/A     43  37  79 S1        29.97R
PALMDALE       CLEAR     63  34  33 SW8       29.99S
LANCASTER      CLEAR     62  40  44 SW9       29.98R
EDWARDS AFB    CLEAR     59  35  40 SW9       29.95R
DAGGETT        CLEAR     66  34  30 NW7       29.93R
29 PALMS N     CLEAR     64  23  21 NW7       30.01R
NEEDLES        CLEAR     72  23  16 W3        29.87R

$$

REGIONAL REPORTS

CITY           SKY/WX    TMP DP  RH WIND       PRES   REMARKS
SANTA BARBARA  CLOUDY    55  54  96 E7        29.97R FOG
SANDBERG         N/A     58  40  51 NW14      30.08S
LAS VEGAS NV   PTCLDY    71  28  20 CALM      29.90R
PHOENIX AZ     CLEAR     67  36  31 E8        29.89R
TIJUANA        FOG       55  55 100 CALM      29.99S VSB 1/2

$$

OFFSHORE ISLANDS

CITY           SKY/WX    TMP DP  RH WIND       PRES   REMARKS
CATALINA ARPT  CLEAR     64  45  49 SW3       29.99R
SAN NICOLAS IS PTCLDY    52  50  93 SW9       29.96S

$$

MARINE AND OFFSHORE BUOY REPORTS

STATION/POSITION SKY/WX   TEMP    WIND        PRES    VSBY  SWELL
                          AIR SEA DIR/SP/G                  HT/PER/DIR
                          (F)     (DEG/KT/KT) (MB)    (MI)  (FT/S/D)
TANNER BANKS               56 58              1015.0S
S CLEMENTE BASIN           57 62  250/  6/ 10 1015.4R         5/220/14
SAN NICOLAS IS.               57                N/A           7/260/15
SO. S. ROSA ISLA           52 56  310/ 12/ 16 1014.1R         7/250/14
W. S. BARBARA CH              54  340/  4/ 10 1014.0R         7/290/12
M. S. BARBARA CH           52 55  220/  6/  8 1015.4R         5/250/14
S. MONICA BASIN                   140/  8/ 10 1014.4R         3/220/14
S PEDRO CHANNEL               58                N/A           3/210/14
CMP PENDLETON NS              60                N/A           2/210/15
OCEANSIDE OFFSHR              61                N/A           3/200/14
TORREY PINES OTR              62                N/A           2/230/15
SAN DIEGO BAY                 60              1015.0R
POINT LOMA SOUTH              61                N/A           3/240/14

$$





USA.gov is the U.S. government's official web portal to all federal, state and local government web resources and services.